Regional Weather Roundup
Issued by NWS

Home | Current Version | Previous Version | Text Only | Print | Product List | Glossary On
Versions: 1 2 3 4 5 6 7 8 9 10 11 12 13 14 15 16 17 18 19 20 21 22 23 24 25 26 27 28 29 30 31 32 33 34 35 36 37 38 39 40 41 42 43 44 45 46 47 48 49 50
000
ASUS43 KLMK 171710
RWRKY
KENTUCKY REGIONAL WEATHER ROUNDUP
NATIONAL WEATHER SERVICE LOUISVILLE KY
100 PM EDT TUE OCT 17 2017

NOTE "FAIR" INDICATES FEW OR NO CLOUDS BELOW 12,000 FEET
WITH NO SIGNIFICANT WEATHER AND/OR OBSTRUCTIONS TO VISIBILITY.

KYZ001>023-026-027-061>063-070>075-171800-
WESTERN AND SOUTH CENTRAL KENTUCKY

CITY           SKY/WX    TMP DP  RH WIND       PRES   REMARKS
PADUCAH        CLOUDY    63  40  42 VRB3      30.35F
HENDERSON      SUNNY     64  39  39 SE6       30.36F
OWENSBORO      SUNNY     63  40  42 S8        30.37F
HOPKINSVILLE   SUNNY     64  38  38 SE9       30.35F
BOWLING GREEN  SUNNY     63  42  46 E9        30.37F
GLASGOW        SUNNY     65  38  38 CALM      30.37F
$$

KYZ024-025-028>034-038-045-046-053-171800-
NORTH CENTRAL KENTUCKY

CITY           SKY/WX    TMP DP  RH WIND       PRES   REMARKS
LOUISVILLE/SDF MOSUNNY   63  39  41 VRB6      30.37F
LOUISVILLE/LOU SUNNY     62  40  44 VRB6      30.38F
FORT KNOX      SUNNY     63  39  41 SW5       30.35F
$$

KYZ035>037-039>044-047>052-055>060-089>105-171800-
NORTHEAST KENTUCKY

CITY           SKY/WX    TMP DP  RH WIND       PRES   REMARKS
LEXINGTON      SUNNY     61  40  45 MISG      30.38F
COVINGTON      MOSUNNY   61  41  47 SW9       30.36F
FRANKFORT      SUNNY     62  38  40 SW6       30.37F
$$

KYZ054-064>069-076>088-106>120-171800-
SOUTHEAST KENTUCKY

CITY           SKY/WX    TMP DP  RH WIND       PRES   REMARKS
JACKSON        SUNNY     58  38  47 VRB6      30.38F
LONDON         SUNNY     59  36  42 MISG      30.38F
SOMERSET       SUNNY     59  37  44 CALM      30.39F
MIDDLESBORO    SUNNY     57  42  56 CALM      30.39F
MONTICELLO     SUNNY     61  41  47 VRB5      30.39F
$$




USA.gov is the U.S. government's official web portal to all federal, state and local government web resources and services.